GFSFLT2_sfc_rhum_000.txt.gz
RH
51 66 77 86 84 82 85 84 82 80 82 81 88 90 91 88 88 87 82 83 86 80 82 84 85 87 87 88 92 92 94 72
46 48 62 76 74 80 82 85 83 81 85 85 89 92 90 86 85 82 80 85 84 80 77 85 84 87 89 88 89 89 92 74
57 55 58 60 57 68 82 85 84 87 86 85 90 77 77 81 84 83 79 78 80 77 74 78 83 85 87 86 88 82 70 71
47 63 68 66 44 50 72 62 68 71 68 73 72 75 84 78 86 87 82 83 83 81 81 78 76 84 91 88 88 71 65 70
44 59 68 68 64 69 69 69 72 72 70 73 80 75 81 81 83 84 87 86 91 89 90 93 90 94 94 94 92 92 74 64
41 58 64 66 61 56 64 59 62 65 68 68 79 82 84 82 85 78 84 78 81 93 97 94 95 92 94 92 94 96 84 71
38 50 60 63 60 65 65 63 61 58 61 62 68 72 80 77 81 81 81 81 86 90 93 95 96 96 94 93 89 90 93 87
38 44 54 53 58 63 66 62 58 57 60 64 64 74 77 76 74 75 76 78 82 92 95 93 93 94 93 92 89 86 85 83
35 39 46 50 54 56 58 52 47 55 62 60 62 66 66 64 67 66 70 74 79 86 85 89 95 94 95 94 93 92 90 91
31 22 38 44 49 46 44 45 52 54 62 64 60 58 57 61 63 67 66 67 66 66 69 76 84 88 94 93 88 84 87 84
32 32 33 40 43 41 43 46 48 50 59 58 56 51 49 52 58 66 61 56 57 56 60 61 60 61 57 69 70 73 70 75
32 33 36 40 42 44 45 48 46 46 50 49 50 49 45 49 55 54 53 54 57 62 64 61 61 60 40 44 59 58 70 86
32 32 38 38 42 46 46 49 47 48 45 44 48 46 46 49 52 49 52 53 55 55 60 61 65 63 63 58 58 48 53 57
34 32 35 36 36 40 43 46 42 42 44 50 46 50 46 45 52 48 49 54 57 60 61 62 65 62 72 65 61 49 55 57
34 32 33 38 39 36 41 44 46 43 43 46 50 50 51 51 50 52 52 55 60 63 61 61 65 64 60 69 65 64 58 48
40 37 34 33 43 37 45 38 36 35 42 38 36 52 54 48 50 52 56 58 58 62 51 71 67 68 66 53 64 63 60 60
46 42 40 37 42 45 43 48 45 47 49 47 45 47 44 42 44 52 57 62 64 66 66 67 70 71 68 70 67 64 63 64
50 47 37 40 43 46 53 51 53 54 53 54 52 51 54 55 48 57 60 60 60 63 63 62 66 67 65 62 61 63 60 60
46 43 39 40 48 50 50 57 57 56 55 54 50 51 49 52 52 54 54 54 55 56 58 61 61 58 55 55 52 52 51 49
40 35 36 37 43 47 53 54 54 55 53 53 52 50 49 46 48 51 50 52 55 57 58 58 60 62 58 58 56 53 49 46

GFSFLT2_sfc_rhum_003.txt.gz
RH
92 88 83 83 80 81 82 82 85 88 89 92 94 92 92 90 88 84 85 85 86 87 87 88 91 92 88 90 91 91 96 91
90 92 86 85 80 79 80 82 85 89 90 93 96 92 90 88 87 84 85 83 80 78 85 81 83 86 88 88 89 88 93 92
75 81 82 84 77 77 83 84 86 90 90 92 96 93 91 86 86 85 79 84 80 75 80 85 86 86 86 85 88 92 85 87
68 73 78 74 59 85 86 88 91 90 86 90 89 92 91 86 89 86 82 82 83 82 83 82 82 88 94 90 96 90 84 73
59 74 76 76 72 85 92 84 89 85 82 88 83 90 91 95 98 96 97 86 98 93 95 97 93 95 95 94 95 92 96 86
60 68 70 73 72 75 74 80 78 86 82 86 95 98 94 95 95 94 93 95 94 88 98 96 94 95 94 94 91 93 89 89
58 66 71 69 68 72 66 68 68 66 74 67 80 92 94 93 95 93 95 93 92 96 98 97 97 96 97 97 96 91 90 91
49 58 62 62 73 69 67 64 57 64 71 71 73 81 83 80 88 89 89 89 93 94 93 94 98 98 98 96 95 95 90 88
41 43 57 56 68 68 66 61 60 65 68 67 68 74 66 69 70 77 78 85 90 92 90 91 94 93 95 96 94 90 93 93
32 27 48 50 62 64 58 49 52 62 72 71 64 63 67 69 72 71 61 69 74 62 70 72 82 81 88 92 93 84 84 83
36 26 33 43 45 49 52 54 56 61 76 71 63 57 52 57 71 63 56 64 63 61 62 67 66 65 60 63 62 66 70 57
35 34 31 40 46 45 49 50 46 58 66 68 60 59 50 50 64 66 57 60 67 62 61 65 67 68 54 54 60 66 73 71
30 33 37 40 43 46 45 50 50 54 49 55 57 55 48 48 55 61 62 60 60 58 64 60 62 66 70 69 65 60 59 56
33 33 36 40 43 45 46 47 47 47 50 55 57 55 53 50 54 50 52 55 52 57 67 66 69 66 72 74 72 62 60 60
36 36 36 43 40 42 47 52 50 45 46 56 53 51 55 53 53 58 57 60 60 65 60 59 68 70 64 72 72 74 70 61
37 36 39 40 47 43 43 43 42 42 44 46 51 57 57 55 53 57 58 64 64 70 65 72 73 77 76 62 73 76 76 73
46 43 42 41 46 50 45 47 54 48 50 48 52 62 58 52 56 63 65 70 64 65 67 69 78 80 80 82 78 77 79 75
54 49 45 46 46 48 52 45 43 53 54 57 59 59 59 54 51 59 60 58 56 58 58 57 62 69 73 76 79 79 67 69
49 53 53 50 53 54 52 52 45 46 56 59 59 57 58 51 50 52 53 54 54 54 55 58 61 66 71 63 70 64 59 54
49 49 48 48 54 58 58 58 54 45 55 62 62 60 57 51 53 53 49 49 50 51 49 59 66 66 69 74 73 68 68 61

GFSFLT2_sfc_rhum_006.txt.gz
RH
94 90 85 86 86 84 84 86 90 92 93 93 92 93 93 90 88 87 87 87 87 84 85 86 85 90 91 92 94 95 96 97
95 93 88 84 83 86 86 87 88 93 94 94 92 92 91 88 87 87 86 84 84 82 87 88 88 89 89 89 90 90 94 90
96 96 92 86 79 78 86 85 89 91 94 95 95 96 94 92 87 86 84 83 80 79 81 86 84 83 86 87 87 94 93 87
85 92 92 90 65 86 90 89 93 93 95 98 98 96 96 90 90 86 82 83 84 86 86 86 87 92 95 86 98 94 91 83
77 80 84 78 81 96 98 98 98 97 93 95 94 92 96 98 98 98 97 90 98 95 96 97 94 96 96 95 93 92 97 93
78 79 77 78 82 95 94 92 96 95 94 91 96 98 97 98 98 98 96 97 96 96 98 97 94 93 95 95 95 95 93 87
72 77 79 76 72 74 73 74 78 77 80 80 96 97 97 97 96 96 96 97 97 97 96 96 96 95 95 97 97 96 96 93
71 72 75 75 76 72 69 68 66 72 78 79 86 94 95 96 96 96 96 94 94 92 92 92 94 94 96 91 94 97 97 95
60 65 68 65 75 71 68 63 61 71 74 75 80 78 73 79 83 91 89 91 90 92 90 91 90 91 85 89 94 93 91 93
44 42 61 61 71 72 68 63 64 69 75 76 72 74 71 76 78 75 72 77 88 70 70 70 73 75 80 79 84 88 75 70
33 46 48 49 54 62 56 56 55 62 80 77 70 68 66 70 79 72 62 69 71 64 67 68 66 66 62 65 65 65 61 57
36 31 34 43 50 51 54 56 55 61 76 78 69 66 60 62 73 70 63 69 71 70 62 69 68 66 56 58 68 63 70 68
37 36 37 43 48 50 51 50 54 57 63 70 70 65 60 58 64 69 70 66 69 65 64 66 65 68 70 70 68 66 62 55
34 33 36 42 46 48 46 48 50 49 53 59 70 68 62 57 61 65 66 69 67 67 68 71 72 74 72 80 75 63 64 63
34 35 36 41 45 47 50 56 57 56 53 56 61 64 60 60 59 66 64 67 66 63 64 67 71 76 71 75 83 82 74 64
40 39 39 41 48 49 48 38 38 37 38 50 56 58 58 61 62 65 66 72 73 74 70 79 80 80 82 72 79 87 89 69
48 45 45 44 50 55 54 48 45 42 57 52 55 62 62 66 66 71 75 72 65 60 59 59 71 72 73 80 81 83 83 78
54 53 49 51 53 55 61 58 50 54 55 60 67 70 70 70 62 66 64 63 61 62 57 58 59 58 59 61 75 73 62 71
53 55 52 51 60 62 63 64 60 57 51 56 65 60 61 58 59 61 61 62 64 67 65 68 64 59 62 67 61 66 65 66
50 48 50 49 55 58 66 71 77 74 68 72 73 64 65 62 64 68 69 69 73 72 76 80 77 72 64 62 60 62 67 58

GFSFLT2_sfc_rhum_009.txt.gz
RH
94 92 87 87 86 86 88 90 92 93 91 92 92 93 94 91 89 88 88 88 88 83 88 87 86 86 89 92 94 94 97 98
94 93 91 90 90 89 88 91 92 93 92 92 91 92 91 90 89 88 86 85 82 82 87 88 88 88 89 90 91 91 95 91
95 94 92 89 81 81 87 86 91 94 95 93 96 96 94 92 87 87 86 84 84 85 84 85 83 84 84 86 86 97 96 92
96 95 94 92 72 85 90 90 94 96 98 98 98 96 95 91 90 86 82 84 86 85 86 87 90 97 97 88 91 89 95 95
95 96 94 94 91 95 98 98 98 97 95 98 98 95 97 98 98 98 96 88 97 94 96 98 95 96 97 97 96 94 96 88
84 89 86 82 94 98 97 98 98 98 97 95 97 98 98 98 99 98 97 98 96 97 98 96 96 95 95 97 97 98 99 98
83 86 87 77 84 84 90 91 98 96 96 94 96 97 97 98 97 98 97 98 98 98 96 96 95 95 95 95 95 95 97 99
76 84 86 77 77 74 74 76 76 81 84 83 92 96 97 97 98 97 97 96 96 94 93 92 92 93 93 91 95 97 96 95
76 77 82 81 79 75 72 68 68 74 80 83 89 93 92 94 97 98 97 95 91 92 90 91 83 85 77 81 82 87 93 81
66 56 72 70 82 78 74 72 71 71 80 83 83 82 77 80 82 90 89 82 95 85 72 72 73 74 78 75 73 80 71 62
47 62 66 63 74 77 72 66 64 64 79 83 79 79 78 80 82 80 75 76 85 71 70 69 67 66 61 65 66 67 63 59
36 51 52 52 56 59 59 61 65 66 68 81 78 79 76 72 79 81 72 73 75 75 68 74 70 67 55 60 67 68 67 67
36 35 38 50 53 54 55 53 57 62 62 64 78 76 72 72 72 77 76 72 70 73 70 67 71 74 72 71 72 69 64 65
40 38 39 42 47 48 49 51 52 53 58 62 71 75 72 68 64 66 72 71 73 76 72 76 74 79 71 83 74 70 68 66
37 37 38 42 46 49 51 57 58 58 55 59 56 70 70 70 63 60 67 71 68 71 75 74 73 82 77 74 83 83 87 74
44 43 43 42 48 50 53 45 42 39 43 46 47 62 60 64 62 62 64 76 76 76 74 81 80 76 75 76 81 82 76 70
56 55 53 52 56 58 61 62 56 52 54 62 58 60 69 66 66 67 72 79 75 71 66 64 68 68 65 70 74 83 87 88
58 56 54 53 54 60 68 70 65 68 66 69 64 72 75 77 74 72 65 66 70 69 65 63 65 68 68 72 72 66 67 75
56 58 58 58 61 63 61 67 76 78 75 74 73 75 74 73 68 67 72 73 76 76 84 86 88 88 86 81 78 72 71 75
65 63 63 62 66 60 65 67 75 79 84 81 83 76 78 76 80 80 84 86 88 89 94 95 94 94 86 77 69 74 74 74

GFSFLT2_sfc_rhum_012.txt.gz
RH
92 90 86 87 86 88 89 90 92 91 90 92 92 94 93 90 90 88 87 87 87 87 89 91 90 91 91 91 91 91 96 96
93 92 90 90 90 88 88 91 92 92 90 91 91 91 90 87 88 87 85 83 84 85 86 85 84 84 85 88 87 90 94 93
93 92 91 88 83 82 88 88 92 94 93 92 95 96 93 91 88 87 85 84 84 84 85 86 86 86 84 84 85 93 91 90
95 94 93 90 73 85 91 90 94 96 98 97 97 95 94 91 89 85 80 82 83 84 84 86 86 93 95 90 94 91 92 89
96 95 95 94 94 94 98 98 98 97 95 98 98 98 97 97 98 98 96 87 97 95 96 98 96 97 97 97 97 97 98 95
94 96 96 95 96 97 97 98 98 98 97 95 98 98 97 98 99 98 98 98 96 97 98 96 95 93 94 94 95 96 98 98
88 92 93 84 93 97 97 98 98 97 97 95 97 97 97 97 98 98 98 97 98 97 95 94 92 90 92 94 94 96 96 96
86 90 91 85 88 88 92 93 95 96 95 96 92 97 97 97 97 97 97 98 97 95 91 88 87 89 86 79 80 85 92 85
81 87 88 84 80 78 77 78 78 82 86 85 85 93 96 96 98 98 98 97 94 93 91 92 82 79 72 76 76 76 87 75
79 67 83 85 85 85 80 76 74 73 79 86 87 91 92 92 96 97 97 97 96 96 79 75 74 74 75 72 71 70 67 62
70 67 75 73 77 86 85 78 78 72 77 84 84 86 87 86 86 87 90 91 93 93 76 74 71 69 66 66 71 68 64 56
54 59 69 66 65 66 66 66 65 72 70 74 80 83 84 86 86 84 84 81 83 85 75 78 73 69 55 59 70 69 70 68
40 47 51 54 58 57 59 56 57 62 63 63 72 77 80 83 80 83 86 77 70 76 77 73 76 80 73 70 73 72 72 67
41 39 40 45 51 52 55 55 55 57 59 61 64 70 78 77 76 72 78 77 78 77 76 78 76 82 72 81 70 67 66 71
41 42 42 46 48 51 52 56 57 55 52 56 52 61 65 77 72 72 71 76 71 68 72 75 68 85 82 71 84 77 80 70
48 48 48 49 56 57 60 59 59 55 57 54 50 59 66 66 76 77 72 73 78 83 77 80 79 84 82 76 73 75 60 58
66 60 58 58 61 64 69 65 65 70 70 72 69 68 70 68 72 77 82 84 83 78 74 72 68 68 64 70 75 80 82 72
64 62 60 61 63 63 68 74 73 75 74 78 78 82 81 81 83 86 83 79 80 81 82 76 78 77 77 75 75 71 71 77
63 66 64 64 64 62 64 68 70 73 70 74 82 86 81 83 83 81 84 90 90 92 94 91 95 95 95 95 94 94 92 86
69 68 67 69 72 61 63 62 67 65 68 73 85 83 87 91 95 94 94 94 95 92 95 96 96 96 95 94 92 86 83 76